Terminal Aerodrome Forecast
Issued by NWS

Home | Current Version | Previous Version | Graphics & Text | Print | Product List | Glossary On
Versions: 1 2 3 4 5 6 7 8 9 10 11 12 13 14 15 16 17 18 19 20 21 22 23 24 25 26 27 28
000
FTUS43 KBIS 041428 AAB
TAFJMS
TAF AMD
KJMS 041428Z 0414/0512 14008KT 6SM BR OVC006
     FM041600 16010KT 6SM -TSRA BKN015CB
     FM041800 15010KT 4SM -TSRA BKN035CB
     FM042000 18009KT P6SM VCTS SCT050CB
     FM042200 16010KT P6SM SCT050
     FM050800 11004KT 4SM BR SCT200=

USA.gov is the U.S. government's official web portal to all federal, state and local government web resources and services.